Weather History for Douglas, WY

Change the Weather History Date:

Wednesday, August 7, 2013

  Actual Average Record
Temperature  
Mean Temperature 70 °F 72 °F  
Max Temperature 85 °F 89 °F 98 °F (1975)
Min Temperature 54 °F 55 °F 52 °F (2011)
Degree Days  
Heating Degree Days 0 0  
Month to date heating degree days 0 0  
Since 1 June heating degree days 56 125  
Since 1 July heating degree days 0 15  
Cooling Degree Days 5 7  
Month to date cooling degree days 55 50  
Year to date cooling degree days 455 332  
Since 1 June cooling degree days 439 326  
Growing Degree Days 19 (Base 50)    
Moisture  
Dew Point 50 °F    
Average Humidity 51    
Maximum Humidity 77    
Minimum Humidity 24    
Precipitation  
Precipitation 0.05 in 0.03 in 0.18 in (2007)
Month to date precipitation 0.12 0.25  
Year to date precipitation 5.91 9.16  
Sea Level Pressure  
Sea Level Pressure 29.92 in    
Wind  
Wind Speed 12 mph (SE)    
Max Wind Speed 29 mph    
Max Gust Speed 38 mph    
Visibility 10 miles    
Events Rain , Thunderstorm    
T = Trace of Precipitation, MM = Missing Value Source: NWS Daily Summary

Daily Weather History Graph

Daily Weather History Graph

Search for Another Location

Airport:

Trip Planner

Search our weather history database for the weather conditions in past years. The results will help you decide how hot, cold, wet, or windy it might be!

Date:

Astronomy

Aug. 07, 2013 Rise Set
Actual Time 5:59 AM MDT 8:14 PM MDT
Civil Twilight 5:28 AM MDT 8:45 PM MDT
Nautical Twilight 4:49 AM MDT 9:24 PM MDT
Astronomical Twilight 4:06 AM MDT 10:06 PM MDT
Moon 6:53 AM MDT (8/7) 8:19 PM MDT (8/7)
Length of Visible Light 15h 17m
Length of Day
14h 14m
New Moon, 1% of the Moon is Illuminated
Aug 7
New Moon
Aug 14
First Quarter
Aug 20
Full
Aug 28
Last Quarter
Sep 5
New

Hourly Weather History & Observations

Time (MDT) Temp. Heat Index Dew Point Humidity Pressure Visibility Wind Dir Wind Speed Gust Speed Precip Events Conditions
12:53 AM 64.0 °F - 46.9 °F 54% 29.97 in 10.0 mi East 6.9 mph - N/A   Clear
1:53 AM 60.1 °F - 48.0 °F 64% 29.97 in 10.0 mi East 5.8 mph - N/A   Clear
2:53 AM 62.1 °F - 48.9 °F 62% 29.95 in 10.0 mi ESE 9.2 mph - N/A   Clear
3:53 AM 57.9 °F - 48.0 °F 70% 29.96 in 10.0 mi East 6.9 mph - N/A   Clear
4:53 AM 57.0 °F - 48.0 °F 72% 29.97 in 10.0 mi SE 4.6 mph - N/A   Clear
5:53 AM 54.0 °F - 46.9 °F 77% 29.96 in 10.0 mi SE 5.8 mph - N/A   Clear
6:53 AM 59.0 °F - 50.0 °F 72% 29.96 in 10.0 mi ESE 5.8 mph - N/A   Clear
7:53 AM 64.9 °F - 53.1 °F 65% 29.96 in 10.0 mi SSE 10.4 mph - N/A   Clear
8:53 AM 68.0 °F - 54.0 °F 61% 29.96 in 10.0 mi SSE 11.5 mph - N/A   Clear
9:53 AM 72.0 °F - 54.0 °F 53% 29.95 in 10.0 mi SE 13.8 mph - N/A   Clear
10:53 AM 75.9 °F - 54.0 °F 46% 29.94 in 10.0 mi SE 15.0 mph 21.9 mph N/A   Clear
11:53 AM 79.0 °F - 53.1 °F 40% 29.91 in 10.0 mi SE 17.3 mph 20.7 mph N/A   Clear
12:53 PM 81.0 °F - 52.0 °F 36% 29.89 in 10.0 mi SE 15.0 mph 23.0 mph N/A   Clear
1:53 PM 84.9 °F - 51.1 °F 31% 29.86 in 10.0 mi SE 18.4 mph 24.2 mph N/A   Clear
2:53 PM 84.0 °F 82.5 °F 53.1 °F 34% 29.86 in 10.0 mi SSE 17.3 mph 25.3 mph N/A   Clear
3:53 PM 82.9 °F - 50.0 °F 32% 29.85 in 10.0 mi South 16.1 mph 26.5 mph N/A   Clear
4:53 PM 82.9 °F - 42.1 °F 24% 29.82 in 10.0 mi SSE 19.6 mph - N/A   Clear
5:53 PM 79.0 °F - 43.0 °F 28% 29.86 in 10.0 mi SSE 13.8 mph - N/A   Clear
6:10 PM 78.8 °F - 42.8 °F 28% 30.03 in 10.0 mi SSE 8.1 mph - N/A Thunderstorm Scattered Clouds
6:36 PM 69.8 °F - 46.4 °F 43% 30.08 in 4.0 mi Variable 4.6 mph 33.4 mph 0.00 in Rain Rain
6:53 PM 66.0 °F - 51.1 °F 59% 29.84 in 3.0 mi East 28.8 mph 38.0 mph N/A Rain Rain
7:53 PM 64.9 °F - 53.1 °F 65% 29.85 in 10.0 mi East 6.9 mph - N/A   Clear
8:53 PM 64.9 °F - 54.0 °F 68% 29.86 in 10.0 mi NE 6.9 mph - 0.02 in   Clear
9:53 PM 66.0 °F - 53.1 °F 63% 29.88 in 10.0 mi East 13.8 mph - N/A   Clear
10:53 PM 60.1 °F - 48.9 °F 67% 29.93 in 10.0 mi East 12.7 mph 21.9 mph N/A   Clear
11:53 PM 59.0 °F - 46.9 °F 64% 29.96 in 10.0 mi Variable 3.5 mph - N/A   Clear